Simultaneous Nadir Overpasses (SNOs) Predictions

Prediction of SNOs between LANDSAT-8 and METOP-A Satellite Orbit:

Table of predicted SNOs for the next 14.0 days since TLE Epoch: 10/9/2018
Index Date (LANDSAT-8) Time (LANDSAT-8) Lat,Lon (LANDSAT-8) SZA (LANDSAT-8 ) Date (METOP-A) Time (METOP-A) Lat,Lon (METOP-A) SZA (METOP-A ) Distance(km) Time Diff (sec)
1 10/12/2018 01:32:27 -81.41, 21.99 88.45 10/12/2018 01:31:54 -81.41, 21.98 88.47 0.77 33
2 10/12/2018 02:21:53 81.41,-170.32 91.58 10/12/2018 02:22:34 81.41,-170.37 91.59 1.08 41
3 10/14/2018 21:06:41 -81.41, 88.32 87.40 10/14/2018 21:06:10 -81.41, 88.33 87.41 0.20 31
4 10/14/2018 21:56:07 81.41,-104.02 92.62 10/14/2018 21:56:50 81.41,-104.03 92.64 0.25 43
5 10/17/2018 16:40:53 -81.41, 154.81 86.35 10/17/2018 16:40:25 -81.40, 154.65 86.38 2.77 28
6 10/17/2018 17:30:19 81.41, -37.55 93.67 10/17/2018 17:31:05 81.41, -37.72 93.67 2.85 46
7 10/20/2018 12:15:06 -81.40,-138.92 85.35 10/20/2018 12:14:41 -81.40,-139.06 85.37 2.39 25
8 10/20/2018 13:04:31 81.42, 29.08 94.72 10/20/2018 13:05:20 81.41, 28.95 94.73 2.30 49
9 10/23/2018 07:49:18 -81.40, -72.48 84.35 10/23/2018 07:48:56 -81.41, -72.40 84.34 1.54 22




NCC Satellite Simultaneous Nadir Overpasses (SNOs) Prediction Service
